RH
54 54 52 49 45 41 37 34 31 30 28 27 25 24 23 20 19 18 18 19 20 19 18 18 17 17 19 20 20 21 22 22 23 23 23 23 23 23 23 22 21 20 20 20 19 17 18 16 14 26 42 62 78 68 56 58 56 52 40 30 59 98 103 99 97 90 81 74 63 42 19 9 6 4
51 49 45 41 37 34 32 30 29 28 27 26 25 23 22 20 18 16 15 16 16 16 15 14 13 12 12 14 15 16 17 18 19 21 21 22 22 22 22 22 21 22 20 19 21 18 17 18 14 14 21 39 67 77 68 58 51 52 49 38 48 75 93 102 101 96 91 84 76 61 36 17 9 6
44 41 38 35 34 32 31 30 29 28 26 24 23 21 19 18 16 15 14 14 13 13 13 11 10 10 9 9 10 11 12 13 14 16 17 18 20 21 21 22 20 21 21 19 20 20 17 18 15 13 16 24 43 66 72 62 52 50 53 51 46 45 63 94 104 99 99 96 86 75 57 33 15 8
39 37 35 33 32 31 30 29 27 25 23 21 19 17 15 13 13 12 12 11 11 9 9 9 8 7 7 6 6 7 7 8 9 10 12 13 15 17 18 20 20 19 20 20 19 20 18 18 16 13 14 14 23 50 74 74 63 55 57 66 66 47 45 75 100 100 98 101 97 86 73 51 25 11
36 35 34 32 31 29 27 25 23 19 17 14 13 11 10 9 8 8 7 7 7 6 5 6 6 5 5 4 4 5 5 5 6 6 8 8 9 12 14 16 18 18 19 19 18 19 19 17 16 13 13 12 13 32 61 76 74 65 61 72 86 79 59 59 84 100 97 98 101 97 86 66 39 18
33 34 33 30 28 25 22 19 16 13 11 9 8 7 6 5 5 4 4 4 4 4 3 3 3 3 3 3 3 3 3 3 4 4 5 6 5 7 9 11 13 15 17 17 16 17 18 18 17 14 13 12 11 17 34 57 74 74 68 68 77 90 82 58 58 82 97 97 96 98 96 80 54 31
32 32 29 26 23 19 16 13 10 8 7 6 5 4 4 3 3 3 3 3 3 3 3 3 3 2 2 3 2 3 3 2 3 3 3 4 4 4 6 8 9 10 12 14 15 15 16 17 17 15 14 12 11 12 16 31 56 75 78 72 66 72 83 77 57 55 79 98 98 95 98 92 71 44
29 27 24 20 16 13 10 8 6 5 4 4 3 3 3 3 3 3 3 3 3 3 3 3 3 3 2 3 2 2 3 2 2 3 2 2 3 3 3 4 6 7 8 10 12 13 14 15 15 15 15 12 11 12 13 18 37 63 77 81 78 71 75 94 86 56 57 85 101 97 95 96 86 60
25 22 18 13 10 8 6 5 4 4 3 4 4 4 4 4 4 4 4 4 4 4 4 3 4 4 3 3 3 3 3 3 3 3 3 3 2 2 3 3 4 4 5 7 8 9 10 11 13 15 14 14 12 10 13 14 22 45 65 75 87 87 76 87 99 83 60 60 79 95 97 98 96 80
21 17 12 9 7 5 4 4 4 4 4 4 4 4 5 5 5 5 5 5 5 5 5 4 4 4 4 3 4 3 3 3 3 3 3 3 3 3 2 2 3 3 3 5 5 6 7 8 11 13 14 14 13 11 14 15 15 30 48 57 74 90 80 71 85 95 79 57 64 90 100 99 101 96
16 12 8 6 5 4 4 4 4 5 5 5 5 6 6 6 6 6 6 5 5 5 5 5 4 4 4 4 3 4 3 3 3 3 3 3 3 3 3 3 3 3 2 3 4 4 5 6 8 11 13 13 14 12 15 17 15 21 35 45 63 85 88 75 74 85 83 67 70 93 102 99 100 101
10 7 6 4 4 5 5 5 5 6 6 6 7 7 7 7 6 6 6 5 5 5 4 4 4 4 4 4 3 3 3 3 3 3 3 3 3 3 3 3 3 3 3 2 3 3 3 5 6 8 10 12 13 14 15 16 15 16 26 38 50 69 87 88 79 83 89 77 71 89 102 100 99 102
6 5 5 4 5 5 5 6 7 7 8 8 8 7 7 7 6 6 6 6 5 5 5 5 5 5 5 4 4 4 3 3 3 3 3 3 3 3 3 4 3 3 3 3 2 3 3 3 4 5 8 9 11 13 14 16 18 16 21 33 42 52 75 90 82 79 93 87 71 81 100 102 98 101
5 5 5 5 6 6 6 8 8 9 9 8 8 8 7 7 7 7 6 6 6 6 6 5 5 5 4 4 4 4 4 3 3 3 3 3 3 3 2 3 3 3 3 3 2 3 3 3 3 4 5 7 9 12 13 15 21 23 21 27 37 44 62 85 84 75 87 93 76 75 95 103 99 100
5 5 6 6 6 7 8 9 10 10 9 9 9 9 8 8 8 7 7 7 6 5 5 5 5 4 4 4 4 3 3 3 3 3 3 3 3 3 3 3 3 3 3 3 3 3 2 2 3 3 4 5 6 9 12 13 20 29 27 22 31 49 66 84 88 76 82 95 82 70 87 103 100 99
6 6 6 7 7 9 9 9 10 10 9 10 10 8 9 9 8 8 8 6 5 5 5 3 4 5 5 4 4 4 3 3 3 3 3 3 2 2 3 2 3 3 3 3 3 3 3 3 2 2 3 4 5 7 10 11 15 27 33 24 23 44 68 85 90 79 78 90 85 72 85 102 101 100
6 7 7 8 9 10 10 10 10 10 10 10 9 10 10 8 8 8 6 5 5 4 3 9 21 32 33 22 14 14 15 14 14 9 5 5 4 3 3 2 2 3 3 3 3 3 3 3 3 3 2 3 4 5 7 10 11 19 32 30 20 24 44 70 88 83 76 83 84 74 81 98 101 100
7 8 9 10 10 10 10 11 11 10 11 10 10 10 9 8 9 7 4 6 4 4 19 40 54 62 60 47 38 42 46 49 48 33 16 10 9 4 3 3 3 2 2 3 3 3 3 3 2 3 3 3 4 4 5 8 10 13 22 30 24 17 23 47 76 83 77 78 80 75 80 95 100 100
8 10 11 10 11 11 11 11 11 11 11 10 10 10 9 9 8 5 5 6 3 15 45 62 61 62 65 59 54 56 58 62 63 48 32 32 30 16 4 2 3 2 2 2 2 3 3 3 3 2 2 2 3 4 4 6 9 11 14 21 25 22 18 31 60 82 82 77 83 89 92 96 100 100
10 11 11 11 11 12 11 12 12 11 10 10 10 10 9 8 6 5 6 4 9 29 51 57 60 70 72 61 53 53 56 61 64 54 43 44 47 37 21 10 4 3 3 2 2 3 3 3 3 2 3 3 2 3 4 5 7 9 11 17 24 25 21 24 46 76 87 81 85 96 99 97 99 101
11 11 11 12 12 12 12 12 12 11 11 10 10 10 9 7 6 5 5 6 17 33 47 58 73 79 71 63 61 61 63 72 82 82 70 58 54 53 46 30 13 4 3 2 2 2 3 3 3 2 3 3 2 3 3 4 7 7 8 14 21 24 23 21 34 65 87 87 86 95 99 98 99 102
12 12 12 12 13 13 13 13 11 11 11 11 11 10 9 7 6 5 6 12 22 37 56 75 84 81 76 77 80 77 74 81 92 96 90 77 69 68 65 48 23 7 3 3 2 2 2 3 3 3 3 2 2 3 3 2 5 6 6 10 16 22 23 18 28 61 87 92 92 97 101 100 98 100
12 12 13 13 14 14 14 13 12 12 12 11 11 10 9 7 5 5 8 16 29 51 75 85 82 80 81 79 77 78 82 91 96 95 93 84 70 62 56 41 20 7 4 3 2 2 3 3 3 2 3 3 2 2 3 3 4 4 6 9 12 21 22 16 34 71 92 94 98 100 99 100 99 99
13 13 14 15 15 15 14 13 13 13 13 12 11 11 9 7 5 6 12 26 44 67 87 88 78 78 81 79 78 80 87 97 101 100 99 88 64 41 26 17 10 4 3 3 2 2 2 2 3 3 2 3 3 2 2 3 3 3 6 7 10 19 18 16 45 89 100 94 99 103 99 100 101 99
14 14 16 16 15 15 15 15 15 13 13 13 12 11 10 7 5 8 20 41 57 70 84 86 74 69 73 77 84 90 95 100 101 102 102 91 72 45 16 3 5 4 2 3 2 2 3 2 2 3 3 2 3 3 2 2 3 4 5 6 9 15 15 15 43 87 103 98 99 102 99 100 101 98
15 15 15 15 14 15 16 16 16 14 13 13 12 12 11 8 6 8 22 46 57 60 75 82 70 63 63 64 76 93 100 99 99 103 103 97 92 75 33 3 3 5 2 3 3 1 3 4 2 3 3 3 3 2 2 3 3 2 4 7 8 12 16 19 33 65 92 100 101 101 99 99 101 99
15 14 14 14 14 16 16 17 17 15 14 13 12 14 13 9 7 6 16 41 52 52 65 76 71 68 67 68 80 95 101 101 99 101 102 98 105 102 59 12 3 5 1 2 4 2 2 3 3 3 2 3 4 3 2 2 2 3 8 12 11 9 15 23 36 64 92 101 101 101 99 99 100 100
14 13 15 15 15 16 16 18 17 15 15 14 13 15 14 11 9 5 9 30 45 46 54 67 73 76 79 84 94 98 100 102 100 103 103 88 85 93 62 11 -1 7 4 1 3 3 3 3 2 4 4 2 3 3 2 3 2 2 8 19 20 15 15 23 46 79 101 101 99 101 101 100 100 101
14 15 16 16 17 18 17 18 17 15 17 16 14 16 16 13 11 7 5 17 32 39 47 58 72 84 89 95 101 100 100 101 98 102 97 67 57 73 57 15 2 5 2 3 4 1 3 4 2 3 4 2 3 4 2 3 3 0 7 24 33 28 19 22 45 78 99 100 99 101 100 100 101 99
15 18 19 19 20 21 20 18 17 16 18 18 15 16 17 15 13 9 6 7 15 28 40 49 65 86 97 100 101 100 101 101 99 99 90 69 72 83 59 26 18 11 -1 3 6 1 2 5 3 4 4 2 4 4 1 2 4 1 3 15 28 31 27 26 40 67 90 99 101 99 99 102 102 98
19 22 23 23 24 25 23 21 20 19 19 19 18 17 16 17 15 11 9 7 6 16 29 37 51 76 96 102 101 99 99 100 100 99 91 84 96 96 62 26 15 8 2 3 3 2 4 3 2 4 4 3 3 2 3 3 1 3 7 10 13 20 26 30 39 57 78 94 100 99 99 102 101 96
22 25 26 26 27 28 26 25 25 23 21 19 20 19 17 17 17 14 12 9 6 8 16 23 35 58 83 97 102 101 100 99 100 102 95 88 92 97 85 54 19 1 4 5 2 3 4 3 5 4 2 4 5 2 4 4 1 13 33 42 42 40 37 37 41 51 70 91 101 101 100 101 99 93
25 27 27 28 28 28 28 28 28 28 25 22 20 20 19 18 18 17 14 11 8 7 8 13 25 43 64 83 96 102 101 97 99 102 100 91 83 88 99 83 34 2 3 4 1 5 5 0 4 5 1 4 8 14 21 22 23 39 56 63 67 69 61 51 47 54 75 95 102 100 100 102 100 94
25 27 27 27 27 28 28 29 29 30 29 27 23 21 20 19 18 18 16 13 11 8 5 7 16 31 49 63 75 88 96 97 98 99 99 97 88 88 104 94 48 19 22 17 2 2 6 4 3 5 4 2 13 42 64 58 52 66 77 70 66 68 65 58 55 65 86 100 101 99 100 101 98 93
25 26 26 26 26 27 27 28 29 30 31 31 29 25 22 21 20 19 18 16 14 11 8 6 8 17 34 47 54 65 82 95 101 99 98 101 93 86 97 99 69 39 30 22 9 4 6 4 1 4 5 2 17 61 97 93 83 92 93 77 64 60 57 58 67 82 97 101 99 99 100 100 99 94
24 24 25 25 25 26 27 27 28 29 30 32 33 30 26 23 21 20 19 18 17 14 11 8 6 7 16 31 41 46 60 84 102 101 95 100 100 88 81 85 78 45 10 6 30 46 32 8 2 19 37 36 32 50 71 75 77 80 70 58 59 62 60 61 74 92 102 100 99 101 100 98 99 97
24 23 24 24 24 24 25 26 27 28 29 30 32 33 32 28 24 22 21 20 19 18 13 11 9 6 6 15 29 36 41 61 90 101 94 92 101 102 84 70 67 49 13 8 52 91 86 53 33 44 69 72 55 46 44 39 39 37 29 27 40 54 60 65 77 93 100 99 99 102 100 99 99 99
23 22 23 23 23 24 24 24 25 26 28 29 30 32 34 33 29 26 24 21 20 20 17 13 11 10 6 6 15 27 35 45 68 91 98 92 94 103 99 80 65 49 26 18 41 76 99 97 79 70 78 80 74 72 66 47 31 24 18 16 23 35 49 64 78 90 98 99 100 101 100 99 98 98
22 22 22 22 22 23 23 23 24 24 26 27 28 30 32 35 34 31 27 24 21 20 20 18 14 12 11 6 5 14 26 38 50 68 83 90 89 91 97 97 88 70 48 31 25 34 60 84 89 85 87 90 90 93 87 64 42 31 25 23 26 32 41 55 71 85 94 98 99 100 100 99 99 99
21 21 21 21 21 21 22 22 22 23 24 25 27 28 30 32 35 35 31 28 25 21 20 21 18 14 13 10 7 6 12 26 43 55 65 73 76 77 82 94 100 96 83 63 40 24 25 39 54 69 88 101 102 100 94 79 61 48 39 34 34 36 39 48 62 77 89 97 100 99 99 100 100 100
20 20 20 20 20 20 21 21 22 22 23 23 24 27 28 29 32 35 35 32 30 25 22 21 20 18 16 13 11 8 6 10 26 45 58 65 66 67 76 86 91 95 99 95 81 59 35 19 15 27 54 76 78 75 83 86 75 63 56 50 44 42 42 46 56 67 81 94 101 99 99 101 100 99
20 20 19 19 20 20 20 21 21 21 22 23 23 24 26 27 29 32 35 36 34 30 26 23 20 19 19 16 13 12 9 6 9 21 40 58 66 65 69 77 81 84 91 98 100 94 76 51 27 15 24 36 35 40 69 91 84 69 65 65 63 62 58 56 59 64 73 90 100 99 98 101 100 99
19 19 19 19 19 20 19 20 21 21 21 22 23 23 24 26 27 29 31 35 36 35 32 28 24 21 20 18 17 15 12 10 8 6 13 31 51 61 65 67 69 74 80 85 92 99 100 93 77 62 61 60 47 45 72 98 97 85 82 83 86 90 88 84 81 78 79 90 100 101 99 101 101 100
18 18 19 19 19 20 20 20 20 21 21 22 22 23 23 24 25 26 28 30 35 37 36 33 30 26 22 20 19 18 15 12 11 9 6 8 20 39 57 67 71 72 75 79 85 92 99 102 99 95 96 97 87 80 89 100 100 99 99 97 98 100 99 98 98 96 92 93 98 99 100 101 100 99
17 16 17 18 17 18 19 19 19 20 21 21 21 22 23 23 24 25 26 26 30 34 37 37 35 31 27 24 20 19 19 16 13 13 11 7 6 12 27 47 64 75 80 81 83 88 94 100 102 100 99 101 102 102 101 100 100 100 100 100 101 102 100 99 100 100 98 97 98 100 101 100 100 100
Wind_Speed
46 47 47 47 47 47 48 48 49 49 50 51 51 52 52 52 51 50 48 47 46 46 46 45 44 45 46 47 47 48 49 50 50 49 49 48 47 47 48 48 47 47 46 45 44 43 42 42 41 39 38 36 34 34 35 35 35 34 34 33 32 34 35 35 39 42 42 42 42 41 40 39 40 39
46 46 46 47 48 48 49 50 51 51 52 53 54 55 55 55 55 54 53 52 50 50 49 48 47 46 46 47 48 49 49 51 51 51 51 51 50 49 48 49 49 48 48 47 47 46 44 44 43 41 41 40 37 36 35 35 35 36 37 35 34 36 36 35 39 43 44 44 43 43 42 41 41 41
45 46 47 48 49 50 51 52 53 54 54 55 55 56 56 56 56 56 55 54 53 53 52 51 51 49 48 48 49 49 50 51 52 52 52 53 53 51 50 50 50 50 50 49 48 47 46 45 45 43 42 42 40 38 37 37 37 39 39 37 36 37 37 37 39 42 44 45 44 44 44 44 44 43
46 47 48 50 51 52 53 54 54 55 55 55 56 56 56 57 57 57 57 56 55 55 55 54 54 53 52 51 51 51 51 51 52 53 53 54 54 54 53 52 52 51 51 51 50 49 48 47 46 45 44 44 43 41 39 38 38 39 39 39 39 38 37 37 39 41 44 45 44 44 46 46 45 45
48 50 51 52 53 53 54 54 54 55 55 56 56 57 57 58 58 58 58 58 57 56 56 57 56 55 54 53 53 53 53 52 52 53 54 54 55 55 55 55 54 53 52 52 51 51 49 48 48 46 45 46 46 44 42 39 38 38 39 41 42 40 39 39 39 41 43 45 45 45 46 47 47 46
50 51 52 53 53 53 54 54 55 56 56 57 58 58 58 58 59 59 59 59 58 57 56 56 57 56 55 55 54 53 55 55 54 53 54 55 55 56 56 56 56 55 54 54 53 52 51 49 48 48 47 47 47 46 45 43 40 39 39 41 43 43 41 40 40 41 43 45 47 46 45 48 50 48
51 52 53 53 54 54 55 56 57 57 58 58 58 58 58 58 57 58 58 58 57 57 55 55 56 56 55 55 55 54 54 55 55 55 55 55 56 56 57 57 57 57 56 56 55 54 53 51 50 49 49 48 48 48 48 47 44 42 40 40 42 43 43 42 41 41 42 45 46 46 45 47 51 50
51 52 53 54 55 56 57 57 57 58 58 57 57 56 56 56 55 55 55 56 56 55 54 54 55 55 55 54 54 54 54 54 55 56 56 56 56 56 57 57 58 58 58 57 57 56 55 53 52 51 50 49 48 48 48 48 46 44 42 41 41 43 44 44 43 42 43 43 43 44 46 47 50 51
52 53 54 56 57 57 57 57 56 56 56 55 55 55 54 54 54 54 54 55 55 55 55 54 54 55 56 55 55 55 55 55 54 55 55 56 57 57 56 57 58 59 59 59 59 58 57 55 54 52 52 50 49 50 49 49 48 47 45 44 42 42 43 45 44 43 43 44 43 43 47 48 49 51
53 54 55 56 56 56 56 55 54 54 54 54 54 53 53 53 53 54 54 55 55 56 56 56 56 57 57 58 57 58 58 58 57 56 56 56 57 58 57 57 57 59 60 60 60 60 58 57 56 54 53 51 50 51 51 50 49 48 47 46 45 43 44 45 45 45 44 44 43 42 46 51 51 50
54 55 55 55 55 54 54 53 53 52 52 53 53 53 53 53 53 54 55 56 56 57 57 58 58 58 59 59 60 60 60 60 60 60 59 58 58 59 59 58 57 58 60 60 60 61 59 58 58 56 54 53 52 51 51 51 50 49 48 48 46 44 44 44 46 48 47 45 43 42 46 51 52 50
54 54 54 53 52 52 52 52 52 52 52 51 52 52 53 53 54 55 56 57 57 58 59 59 59 59 60 60 61 61 61 61 61 62 62 61 60 60 60 60 60 59 59 60 61 61 61 59 59 58 56 54 53 52 52 52 51 50 49 48 47 46 44 44 46 48 48 46 44 43 46 51 53 51
53 52 52 51 51 51 51 51 51 51 50 51 51 52 53 54 55 56 57 59 60 60 60 61 61 61 62 62 62 62 61 61 61 61 62 63 63 62 62 61 62 63 61 60 60 62 62 61 59 59 57 56 55 53 52 52 51 49 49 49 48 47 45 44 46 48 49 49 47 44 46 51 53 52
51 51 50 50 50 50 49 49 49 49 49 50 52 53 55 56 57 58 59 60 61 62 62 62 63 63 64 65 65 64 64 64 64 64 64 64 63 63 63 62 63 66 65 63 61 61 63 62 60 60 59 57 56 54 53 53 51 49 49 49 47 47 47 45 46 47 49 50 49 46 45 49 54 53
50 49 49 49 49 48 47 47 47 48 49 51 52 54 56 57 58 59 60 61 62 62 63 64 64 64 63 63 63 62 61 60 60 62 63 65 65 65 64 63 63 66 68 66 62 60 62 63 61 60 60 58 56 55 54 54 52 50 50 50 48 47 47 46 46 47 49 50 50 47 45 46 52 55
48 48 48 48 47 46 46 46 46 48 49 51 53 55 56 57 58 60 61 62 63 64 64 62 59 58 57 56 54 53 52 51 50 50 53 57 62 64 65 65 64 65 68 69 65 61 62 64 63 60 60 59 57 56 55 54 54 52 51 51 50 47 46 45 45 46 48 50 51 50 47 46 51 55
47 47 46 45 45 45 45 45 46 48 50 51 53 54 55 56 58 60 62 64 65 63 59 53 49 49 50 50 48 46 45 44 43 42 42 44 49 55 61 64 66 66 67 69 68 63 62 64 64 61 59 60 58 56 56 55 55 54 52 51 50 49 47 45 44 45 48 51 52 52 49 48 51 56
45 44 44 44 44 44 44 45 46 48 50 51 52 53 54 56 58 61 63 63 60 54 48 45 44 45 48 48 46 44 44 44 43 42 38 36 37 42 50 58 63 67 68 69 69 65 62 65 65 61 59 60 59 57 56 56 55 55 53 51 49 49 48 46 44 45 47 50 52 52 50 48 51 56
43 42 43 43 43 43 44 45 46 48 50 51 51 52 54 56 59 62 62 58 52 44 41 42 46 49 49 48 45 43 42 41 41 40 37 34 33 33 38 46 55 62 67 69 69 66 63 65 66 62 59 59 60 57 56 56 56 56 54 51 48 48 48 47 45 44 46 49 51 52 52 51 54 57
41 41 41 41 42 42 44 45 46 48 49 50 51 52 54 56 60 60 56 50 43 39 38 44 51 53 48 44 41 39 39 38 38 37 36 36 35 32 31 35 43 53 62 67 69 66 63 65 65 62 59 59 59 58 56 56 56 56 54 51 48 47 47 47 46 44 45 48 50 53 55 55 55 57
39 40 40 40 41 42 43 45 46 48 49 50 50 51 53 57 59 55 47 41 37 36 40 47 52 49 43 41 41 41 41 41 39 38 36 36 37 35 31 30 35 43 53 62 68 66 63 64 65 62 60 59 59 57 56 55 55 56 54 51 48 48 47 46 46 45 45 47 49 53 58 58 55 56
38 38 39 40 41 42 43 45 47 48 49 50 50 51 54 57 57 50 40 35 33 35 43 49 48 44 42 42 42 41 41 41 40 38 37 36 35 34 32 30 30 36 44 55 65 65 62 64 64 61 59 59 58 56 56 55 55 55 53 51 50 48 47 47 45 44 45 47 50 52 56 58 58 58
37 38 39 40 41 42 43 45 47 48 49 49 50 51 54 57 55 46 37 32 32 37 45 48 44 41 40 39 39 40 41 41 39 37 37 36 32 29 28 28 27 30 37 49 60 63 61 62 63 60 59 58 56 56 56 55 56 55 53 52 51 49 47 46 45 45 46 47 51 53 52 52 57 61
36 37 39 40 41 42 43 45 47 48 48 49 50 51 54 57 53 43 35 32 33 38 46 47 42 39 38 39 40 42 44 43 39 36 37 35 28 24 22 22 22 25 32 43 54 59 59 61 61 59 58 57 55 55 55 55 55 55 53 52 51 49 48 47 47 49 50 50 54 56 53 49 54 62
35 37 38 39 40 41 43 45 46 48 48 49 50 51 54 57 53 42 34 32 33 37 45 48 43 38 38 42 44 46 48 46 39 34 34 30 25 22 19 17 17 21 28 38 48 54 56 58 59 57 56 55 53 54 55 55 54 52 52 52 51 50 48 49 50 51 52 54 57 57 53 50 54 62
34 35 36 37 39 41 43 44 46 47 48 49 50 51 53 56 53 43 33 32 33 36 42 47 44 40 40 42 45 48 49 46 40 35 30 26 23 22 19 14 13 17 25 34 43 50 53 55 56 55 54 53 52 52 53 52 51 51 51 52 51 50 48 49 51 50 49 52 56 55 50 50 54 60
32 33 35 37 40 41 43 44 46 47 48 49 50 52 53 55 54 45 35 32 33 34 39 44 44 42 42 42 45 48 47 44 41 36 27 21 20 21 19 12 8 13 22 31 39 46 50 52 53 53 52 51 50 50 49 48 49 50 51 50 50 49 48 48 50 48 45 47 52 54 51 49 51 56
30 32 35 37 40 42 44 45 45 47 48 49 51 52 52 53 54 49 39 32 31 32 36 41 43 43 44 44 47 48 45 43 42 36 26 20 18 18 16 9 5 11 19 28 36 42 47 50 50 50 49 47 46 45 45 46 47 49 49 48 46 47 48 48 48 46 41 40 46 53 55 52 49 51
30 32 35 37 39 42 44 45 46 47 48 50 51 52 52 52 53 52 45 35 31 32 35 39 42 45 46 47 49 48 45 43 41 33 25 21 19 17 14 8 2 10 18 26 34 39 43 45 46 46 45 44 43 42 43 44 46 48 48 45 43 45 47 48 48 46 40 36 41 49 55 56 52 50
30 32 35 37 39 41 43 45 47 48 49 50 51 51 52 52 52 54 50 41 35 34 35 36 40 45 47 47 48 48 44 42 40 32 23 21 23 20 14 7 2 9 18 26 32 37 40 41 42 42 42 41 40 40 41 43 43 45 46 45 43 43 44 45 47 47 41 36 38 45 52 56 56 54
30 32 34 36 38 40 42 44 46 48 49 49 50 51 52 52 52 54 54 50 43 38 35 35 38 43 46 46 46 46 44 42 40 33 23 20 23 22 18 11 5 10 19 26 31 34 36 38 38 38 38 38 38 39 40 41 42 42 42 42 42 42 41 43 45 46 42 37 36 42 51 56 56 55
29 31 33 35 37 39 41 43 45 47 48 49 50 50 51 52 52 53 53 53 50 44 37 34 36 39 42 45 45 46 45 42 40 34 24 19 20 21 20 16 9 12 20 25 29 31 33 35 36 36 36 36 36 36 36 36 38 37 36 36 38 39 40 41 43 44 41 37 36 40 48 55 58 57
29 31 32 34 36 38 40 42 44 45 47 49 50 50 51 51 52 52 52 53 53 49 41 36 36 37 40 43 45 46 45 42 41 36 26 20 19 20 21 18 12 12 19 23 27 29 29 31 33 33 34 34 33 31 30 32 34 34 34 35 37 37 37 39 40 41 38 35 36 40 46 52 55 56
28 30 32 34 36 38 40 42 43 44 45 47 49 50 51 51 51 52 52 52 53 52 47 41 37 37 39 41 43 45 44 41 40 38 30 20 18 19 20 17 13 11 16 21 25 27 27 29 30 30 31 32 33 33 32 33 34 33 34 36 36 36 35 36 38 38 35 33 36 41 45 48 50 51
28 29 31 33 35 37 39 41 43 44 45 46 47 49 50 51 51 51 52 52 52 53 51 47 41 38 38 39 41 43 44 40 38 38 34 25 17 15 15 14 11 9 13 20 24 23 23 25 26 27 27 27 30 33 33 33 33 32 31 32 34 34 34 35 36 35 32 31 34 39 43 46 49 49
27 29 31 32 34 36 38 40 42 44 44 45 46 47 49 50 50 51 51 52 52 52 52 51 47 42 39 38 38 39 41 40 37 36 35 31 23 15 11 10 10 9 14 21 22 19 19 22 23 23 24 25 27 29 29 30 30 30 29 29 30 31 32 35 35 31 25 24 29 35 40 44 47 48
27 29 30 32 33 35 37 39 41 43 44 45 46 46 47 49 50 50 51 51 51 51 51 51 51 47 42 38 36 36 38 39 37 35 34 33 29 22 14 8 7 9 13 19 20 17 16 20 23 22 21 21 22 23 25 27 29 30 29 28 29 30 31 34 34 28 21 20 24 30 35 39 41 43
27 29 30 31 33 35 36 38 40 42 43 44 45 46 46 47 48 49 50 49 49 49 50 50 50 50 48 42 36 34 35 35 34 34 33 32 31 29 23 15 8 7 9 12 14 14 14 17 21 21 19 18 17 18 19 22 26 28 28 28 29 29 31 33 33 27 20 17 21 26 30 34 38 42
27 29 30 31 33 34 36 37 39 41 42 43 44 45 45 46 46 47 48 48 48 48 49 49 49 49 50 47 41 36 33 32 32 31 31 32 31 30 29 25 17 8 6 8 10 11 13 15 17 19 18 16 15 16 17 19 21 24 26 27 28 29 30 32 33 29 21 16 19 25 28 32 38 43
28 29 30 31 32 34 35 37 38 39 41 42 43 44 44 45 45 45 46 47 47 47 47 48 48 47 47 48 46 41 35 32 31 31 30 30 30 29 28 27 24 18 9 5 8 10 12 14 15 18 17 14 12 14 15 17 18 20 21 23 25 27 29 30 32 31 24 17 19 26 30 32 37 43
27 28 30 31 32 33 34 35 37 38 39 41 42 43 43 44 44 44 45 45 46 46 46 46 46 46 46 46 46 44 40 35 32 30 30 29 28 28 27 24 22 21 18 10 4 8 12 14 16 18 18 16 15 14 14 15 17 18 18 20 22 24 26 27 28 29 26 21 22 29 34 36 38 42
27 28 29 30 31 32 33 34 35 37 38 39 40 42 42 43 43 43 43 43 43 44 45 45 45 45 45 45 45 45 44 40 34 30 28 27 25 24 24 22 18 17 16 14 12 8 6 9 14 18 19 18 17 17 15 15 17 18 17 18 20 21 22 23 24 26 26 24 26 32 38 40 41 41
27 28 29 30 30 31 32 33 34 35 36 37 39 40 41 41 42 42 42 42 42 42 42 43 44 44 44 44 44 43 43 42 40 35 30 26 25 23 22 22 20 17 14 13 14 14 11 5 6 14 17 18 19 18 16 15 17 18 18 19 20 21 22 22 23 25 26 26 28 33 38 41 43 43
28 28 29 29 30 31 32 32 33 34 35 36 37 38 39 40 40 40 40 40 41 40 40 41 42 42 42 42 42 42 41 41 41 40 36 30 26 24 22 21 21 19 16 13 11 11 11 10 7 5 5 7 12 16 17 15 16 18 20 20 21 23 24 25 25 26 26 27 28 32 36 39 41 42
28 29 30 30 30 31 31 32 33 33 34 35 35 36 37 38 38 39 39 39 39 39 39 39 39 39 40 40 40 40 40 40 39 39 38 36 32 27 23 20 19 18 17 15 12 10 8 6 7 8 9 7 3 5 8 11 13 16 19 21 21 21 22 24 25 26 26 26 27 30 34 38 39 39
Wind_Direction
304 304 303 304 304 304 304 304 304 303 302 301 301 300 299 297 296 294 291 289 287 286 285 282 280 279 279 276 274 274 273 272 271 269 267 265 262 260 260 260 259 258 258 258 258 257 255 256 256 254 253 250 245 243 241 241 242 242 242 239 237 240 243 241 237 233 229 226 224 225 227 226 224 220
305 305 305 306 305 305 305 304 304 303 302 302 301 300 299 298 296 294 292 290 289 286 285 284 281 278 277 276 274 272 271 270 269 269 267 266 263 260 258 258 258 257 257 256 256 256 254 254 254 253 251 249 245 242 241 240 241 240 240 239 235 236 241 244 242 237 232 229 226 224 225 226 225 222
307 306 306 306 306 305 305 305 304 303 302 301 300 299 299 297 296 295 293 291 289 288 285 284 283 280 278 275 273 270 269 268 267 267 266 265 264 262 259 257 256 255 255 254 254 254 254 253 253 252 251 249 246 244 241 238 238 238 238 238 236 235 237 242 244 240 236 233 229 225 224 224 224 223
308 307 307 306 306 306 306 305 304 303 302 301 300 299 298 298 296 295 293 292 290 289 287 284 283 282 280 278 275 272 269 266 265 264 264 263 262 262 260 258 256 254 253 253 253 253 253 252 251 251 250 249 246 243 241 238 236 236 236 236 235 234 234 238 241 241 238 236 233 229 225 224 225 224
308 308 308 307 307 306 305 304 304 303 302 301 300 300 299 298 297 295 294 292 290 289 288 286 284 282 281 279 278 275 272 269 265 263 262 261 260 260 259 258 256 254 253 252 252 252 251 250 249 249 248 247 245 242 240 239 237 235 234 234 234 232 232 234 237 239 240 239 236 232 227 225 225 224
309 309 308 307 307 306 305 305 304 303 303 302 301 300 299 298 297 296 294 293 291 289 288 286 284 283 281 279 277 276 274 272 269 265 262 260 259 258 257 256 256 255 253 251 250 250 249 248 248 247 246 245 245 242 241 240 237 235 234 233 233 233 232 233 234 237 242 243 240 235 230 225 224 224
310 309 309 308 308 307 307 306 305 305 304 303 302 301 300 299 298 297 296 294 293 291 289 288 285 284 282 279 277 275 274 272 270 268 264 261 259 257 255 254 253 253 252 251 250 249 248 247 246 245 244 243 243 242 241 240 237 235 233 232 233 233 233 233 234 234 238 242 241 238 233 226 223 223
311 310 310 309 309 308 308 307 307 306 305 304 303 302 302 301 300 299 298 297 295 293 291 290 288 285 283 281 278 276 273 271 270 268 266 263 260 258 255 253 252 251 250 249 249 248 247 246 244 243 243 241 240 240 240 239 238 236 234 232 231 232 232 232 233 234 236 239 239 240 239 230 223 222
312 311 310 310 310 309 309 308 308 307 307 306 306 305 304 303 302 301 300 299 298 296 294 292 290 288 285 283 280 277 274 271 269 268 266 264 262 259 256 253 251 250 248 247 247 247 246 244 243 242 241 240 239 239 239 238 238 237 235 234 232 232 232 231 232 233 235 237 237 240 244 239 228 223
312 311 311 311 311 310 310 310 309 309 309 308 308 307 306 306 305 304 303 301 300 298 297 295 292 290 288 285 282 279 276 273 270 267 265 263 262 260 257 254 251 249 248 246 245 245 244 243 242 240 240 240 238 237 238 237 237 236 235 234 233 232 231 231 231 232 233 236 236 239 244 244 237 229
312 311 311 311 312 312 312 311 311 311 311 310 310 309 309 308 307 306 304 303 301 300 298 296 294 292 289 287 284 281 278 275 272 268 264 261 260 259 258 255 252 249 247 245 244 243 242 241 241 240 238 238 237 236 236 236 236 235 234 234 233 232 231 230 230 231 232 233 234 237 243 244 241 235
312 312 313 313 313 314 314 314 314 313 313 313 312 312 311 310 309 308 307 306 304 302 301 299 297 295 292 289 286 283 280 277 274 270 267 262 258 256 256 255 253 250 246 244 243 242 241 239 239 239 236 235 235 234 234 235 235 233 233 233 233 232 231 229 228 229 231 233 232 233 239 242 240 238
314 314 315 315 316 316 317 316 316 316 316 315 314 314 313 313 312 311 310 309 307 306 305 303 301 299 296 293 290 287 284 280 276 272 268 264 260 256 252 251 252 251 246 243 241 241 240 238 237 237 235 234 233 232 232 233 233 232 231 231 232 231 231 229 228 228 229 232 231 230 235 239 239 238
316 316 317 318 318 319 319 319 318 318 318 317 317 317 317 316 315 314 312 311 310 308 307 305 302 300 297 294 291 288 285 282 279 275 270 266 261 257 252 248 248 249 246 242 239 239 239 237 235 235 234 232 232 231 230 231 232 230 229 230 230 231 231 229 228 227 226 229 231 229 232 236 237 238
318 319 319 320 321 321 321 321 320 320 320 320 321 320 319 319 317 315 314 312 311 310 309 307 304 302 299 296 294 291 288 284 280 276 272 267 262 257 252 247 245 246 245 241 237 236 237 236 233 232 233 231 230 229 228 229 230 229 228 227 228 230 231 230 228 227 225 226 229 229 229 234 236 237
320 321 322 323 323 323 323 322 322 322 323 323 323 322 321 320 318 317 316 315 314 313 311 310 308 307 305 304 303 300 296 292 288 282 277 270 264 258 252 247 244 243 243 240 236 233 234 235 232 230 231 230 228 227 227 227 228 229 229 227 225 226 229 230 228 227 224 223 227 227 226 231 235 236
322 323 324 324 324 324 324 324 324 325 325 325 324 323 323 322 321 320 319 319 318 317 315 315 316 316 315 314 313 311 308 305 301 295 287 278 269 260 253 247 242 241 241 238 234 230 231 233 231 227 228 229 227 225 225 225 226 228 229 227 225 225 227 229 228 227 224 222 225 227 226 229 233 234
324 325 326 326 326 326 326 326 327 327 327 326 326 326 326 325 324 323 323 322 321 320 321 322 323 323 321 318 317 315 313 311 308 304 297 287 276 265 256 248 242 240 238 236 232 228 228 230 229 226 225 227 226 223 223 223 224 226 228 228 226 224 226 228 228 227 224 222 223 226 228 230 232 231
326 327 328 328 328 328 328 329 329 329 329 329 329 330 329 328 328 327 326 325 324 323 323 324 326 326 324 321 319 317 315 313 311 308 303 297 289 274 259 250 244 240 237 233 229 226 225 226 226 224 223 224 223 222 221 221 223 225 227 227 226 224 224 226 227 226 224 222 223 227 231 234 232 229
328 329 330 330 330 331 331 332 332 332 331 332 333 334 332 332 332 331 329 328 325 322 323 327 329 329 327 327 327 326 324 322 318 312 306 301 297 288 271 257 247 242 237 231 226 223 223 223 223 221 221 221 221 221 220 219 221 223 225 225 224 223 223 223 225 225 223 223 224 228 233 237 234 228
330 331 332 332 333 334 334 334 334 334 335 336 337 337 335 335 336 335 333 330 327 325 328 331 332 331 332 334 333 329 325 322 320 316 308 300 297 294 286 271 254 245 238 230 223 219 219 220 220 218 218 218 218 219 218 218 219 222 223 224 224 223 222 222 223 223 223 223 227 230 233 236 235 228
333 334 334 335 336 337 336 336 337 338 339 340 340 339 339 339 340 339 337 334 333 334 336 336 336 336 337 337 334 330 327 326 324 321 313 305 300 296 290 280 262 248 239 230 222 216 215 217 217 216 216 216 215 216 217 216 218 220 221 222 222 222 222 221 222 222 222 224 230 232 233 234 234 229
336 337 338 339 339 339 339 340 342 343 343 343 343 343 343 344 344 343 340 340 342 343 342 342 342 341 340 339 338 338 337 337 334 327 321 315 309 301 292 281 265 248 239 229 219 213 212 213 214 213 213 213 212 214 214 214 216 218 219 219 220 220 220 220 220 221 221 226 233 235 235 234 230 226
339 341 343 342 341 341 342 344 346 346 345 345 346 346 347 348 348 346 344 346 347 346 348 348 346 344 345 346 346 343 342 342 340 332 326 323 319 312 299 282 263 246 236 227 217 210 208 210 210 210 210 210 210 211 212 213 215 217 218 218 218 219 220 218 218 218 220 223 229 233 236 234 226 222
344 346 346 345 345 346 347 348 349 348 348 348 349 349 351 353 353 349 346 349 348 347 351 352 349 348 351 351 350 346 341 342 342 337 332 328 326 326 315 287 260 243 231 221 212 207 205 206 207 207 207 208 208 209 210 212 214 215 217 218 218 219 219 218 219 220 220 222 224 228 232 231 223 221
348 349 349 349 350 351 351 352 352 351 350 351 352 353 354 356 356 351 347 349 348 347 352 354 352 353 354 352 350 347 344 344 346 344 338 332 330 334 330 303 263 238 224 213 206 202 201 202 203 204 205 205 207 208 209 210 212 213 215 217 218 218 218 219 221 223 225 223 222 223 227 227 223 223
351 352 354 355 356 356 355 355 354 353 353 354 355 356 357 359 359 355 350 349 347 347 353 355 355 358 357 353 349 348 348 349 348 347 347 342 336 337 335 316 267 228 212 202 197 197 197 198 199 200 202 204 205 206 207 208 211 212 214 216 217 218 219 220 221 224 226 224 221 220 223 225 224 223
353 356 358 359 359 359 359 357 356 356 357 358 358 358 359 1 2 1 356 351 348 351 355 356 358 1 1 356 352 352 353 352 351 353 356 353 346 342 339 323 248 207 195 187 187 190 192 194 196 197 199 201 203 204 205 207 209 211 214 216 217 216 219 221 221 223 226 226 223 221 220 221 221 221
356 358 359 360 1 2 1 360 359 359 360 0 1 0 360 1 4 5 2 355 352 356 358 359 1 4 3 359 357 358 358 356 357 360 1 2 5 2 353 344 216 185 175 173 178 183 187 190 193 194 195 197 199 201 203 206 208 210 213 215 216 216 219 221 221 223 227 229 226 224 222 220 219 218
357 359 359 360 1 2 1 1 1 2 2 2 2 2 1 1 4 8 7 3 1 1 0 2 4 6 7 4 360 1 3 1 1 4 9 17 21 16 9 11 97 157 157 161 170 177 182 185 188 191 193 194 195 197 201 205 208 210 212 214 215 217 219 222 222 224 228 231 228 224 223 221 219 219
358 359 359 360 1 2 1 1 3 4 4 4 4 3 3 3 4 8 9 9 9 6 2 6 8 8 10 10 5 3 6 7 6 7 15 28 28 22 20 26 68 129 142 154 164 171 177 180 183 187 190 191 192 195 200 204 207 210 213 216 217 219 221 222 223 224 228 233 230 223 221 220 220 221
358 359 359 0 2 2 1 2 4 4 4 6 6 5 5 5 5 8 10 12 13 11 7 9 11 10 11 14 12 8 9 12 12 12 17 32 38 37 34 32 54 117 134 148 160 167 172 175 179 184 187 188 191 195 199 204 206 209 213 216 218 219 220 222 222 223 227 233 231 223 219 220 221 222
358 358 358 360 1 1 1 3 4 4 5 6 7 7 7 7 7 8 9 12 15 15 12 13 14 12 12 14 15 13 11 13 16 17 19 29 43 52 50 41 53 109 133 145 155 163 168 172 177 182 185 186 188 192 197 204 208 209 212 215 217 218 219 221 220 221 227 233 230 223 220 220 222 223
357 357 356 358 360 0 1 3 3 4 5 6 7 8 9 9 9 8 9 12 15 17 17 17 16 14 12 13 15 16 14 14 17 20 21 27 42 56 58 52 58 95 126 144 155 161 167 173 178 183 186 187 187 189 196 203 207 210 213 215 216 218 219 219 218 220 229 235 231 223 221 222 223 225
355 355 355 356 358 360 1 3 3 3 5 6 7 8 9 10 10 10 10 11 14 16 19 20 20 17 13 12 14 16 16 17 19 21 24 28 38 52 63 69 75 96 126 143 150 157 165 173 177 181 186 191 193 196 200 204 207 211 214 215 216 219 220 218 216 221 230 233 228 224 222 221 223 226
353 353 353 354 357 359 0 2 2 3 4 5 7 8 9 10 11 11 11 11 12 14 17 21 23 21 17 13 12 14 16 18 20 22 24 27 32 38 51 70 85 110 139 145 143 146 163 175 177 179 185 194 201 207 210 211 212 216 218 217 217 221 222 218 216 222 230 230 225 224 221 220 222 224
351 351 351 352 355 357 359 1 2 3 4 5 6 7 9 10 12 12 12 12 12 12 15 18 22 24 22 18 13 13 15 16 19 22 24 26 30 35 40 56 86 114 144 155 152 149 161 176 181 182 187 195 205 213 217 218 220 222 223 221 220 223 224 219 217 222 230 229 225 223 219 216 216 218
348 349 349 351 353 355 357 359 1 2 3 4 5 6 8 9 11 12 13 13 13 13 14 16 19 23 25 22 18 15 16 15 16 20 24 26 29 35 40 47 71 118 146 164 171 169 166 171 178 182 186 195 207 216 220 223 224 225 225 224 223 225 225 221 219 223 231 230 224 223 219 214 212 213
345 346 348 349 352 353 355 357 359 0 2 3 4 6 7 8 10 11 13 14 14 14 15 15 17 20 24 25 22 19 17 16 13 15 20 24 26 30 35 41 47 70 134 167 184 188 182 180 181 182 183 189 201 212 220 225 226 225 226 226 225 226 227 224 222 225 234 236 226 223 221 215 211 212
343 344 345 348 350 352 354 356 357 359 0 1 3 5 6 7 8 10 11 13 14 15 16 16 16 18 21 25 26 24 21 18 15 14 14 16 18 21 27 34 39 41 58 130 179 192 194 197 196 193 192 193 195 201 213 221 223 223 224 225 226 227 228 228 226 225 232 240 232 224 221 216 212 213
340 342 343 346 348 350 352 354 356 357 359 360 1 3 4 6 6 8 9 11 13 15 16 17 17 17 19 22 25 27 26 24 20 17 14 12 12 14 16 23 30 33 36 50 112 177 195 205 207 205 207 212 212 213 219 223 222 221 220 220 223 226 228 230 229 227 230 237 234 225 221 216 212 211
337 339 341 343 345 347 349 351 353 355 357 358 359 1 2 4 5 6 8 9 11 13 15 16 17 18 18 20 22 25 28 28 26 23 18 13 11 10 10 13 22 32 35 40 55 82 145 198 209 211 214 218 219 222 229 230 227 225 222 215 216 220 224 227 228 227 229 234 232 225 219 215 211 211
333 336 338 340 341 343 345 347 349 351 354 355 357 358 360 1 3 4 6 7 9 11 13 15 17 18 18 19 20 22 25 28 29 29 26 19 13 9 6 7 14 23 27 31 43 52 56 67 196 207 214 222 223 222 227 231 226 221 219 217 215 215 217 220 222 224 226 229 229 224 220 215 212 211
331 333 334 336 337 339 341 343 345 347 349 351 354 356 357 358 -0 2 4 5 7 8 10 13 15 17 18 19 20 20 21 24 27 29 30 29 22 14 8 5 7 11 13 14 20 33 43 50 65 110 162 206 219 219 224 232 227 215 211 213 215 215 216 216 217 220 224 227 227 225 221 217 214 212
329 330 330 332 334 336 337 339 341 343 345 347 349 352 354 355 357 359 1 3 4 6 8 9 12 15 17 18 20 20 20 22 24 26 29 31 31 26 18 10 5 3 4 4 1 2 16 40 54 64 71 74 103 190 214 233 234 220 211 209 211 215 217 218 218 220 223 227 229 227 223 219 214 210